Location: Bourg-d�Oueil
(42.8588°N, 0.4991°E)
Time: 00:25:45
(UTC+00:00)

Geosat - Pass Details

Date: 16 June 2021
Orbit: 762 x 766 km, 108.0° (Epoch: 04 August)

Event Time Altitude Azimuth Distance (km) Brightness Sun altitude
Exits shadow 21:15:07 21° 143° (SE) 1,685 5.1 -13.8°
Maximum altitude 21:18:34 75° 61° (ENE) 792 4.0 -14.2°
Drops below altitude 10° 21:23:35 10° 337° (NNW) 2,308 7.8 -14.7°
Sets 21:25:52 0° 335° (NNW) 3,238 9.0 -15.0°
